Find Starlink 4643

NORAD ID: 54824 Int'l Des: 2022-177 Owner: SPXS Country: US Constellation: starlink operational
LEOCIRCULAR

現在のビュー

3D地球を読み込み中...

About Starlink 4643

Starlink 4643 (NORAD 54824) is a starlink constellation satellite (v1.5) launched Dec 28, 2022 by SPXS of US. It operates in LEO, CIRCULAR orbit with a mass of 305.00 kg.

Starlink 4643について

説明を読み込み中...

次回通過

Passes for default location (London). Set your location on the main map for personalized predictions.

高度履歴

Loading altitude history...

軌道要素

1 54824U 22177E 26168.06971272 .00000376 00000-0 23199-4 0 9993
2 54824 43.0052 294.6998 0001579 281.4935 78.5739 15.27579012192123
Epoch: Jun 17, 2026 • Age: 33 hours

現在のステータス

高度 484.7 km
速度 7.62 km/s
衛星直下点 -12.78°S, 151.91°W
打ち上げ日 Dec 28, 2022
運用期間 3.4 years
タイプ internet

技術仕様

分類 Payload
質量 305.00 kg
乾燥質量 290.00 kg
総質量 305.00 kg
長さ 0.20 m
直径 2.80 m
スパン 9.00 m
形状 Box + pan
製造者 SPXS
バスタイプ Starlink
フェーズステータス In Orbit
所有者/国 SPXS/US

Most Searched